Regional Weather Roundup
Issued by NWS

Home | Current Version | Previous Version | Text Only | Print | Product List | Glossary On
Versions: 1 2 3 4 5 6 7 8 9 10 11 12 13 14 15 16 17 18 19 20 21 22 23 24 25 26 27 28 29 30 31 32 33 34 35 36 37 38 39 40 41 42 43 44 45 46 47 48 49 50
000
ASUS43 KTOP 272259
RWRKS

WEATHER ROUNDUP FOR KANSAS
NATIONAL WEATHER SERVICE GOODLAND KS
500 PM CST TUE JAN 27 2015

NOTE:  "FAIR" INDICATES FEW OR NO CLOUDS BELOW 12,000 FEET WITH NO
SIGNIFICANT WEATHER AND/OR OBSTRUCTIONS TO VISIBILITY.

KSZ001>006-013>018-027>032-041>047-280000-
NORTHWEST KANSAS

CITY           SKY/WX    TMP DP  RH WIND       PRES   REMARKS
GOODLAND       PTCLDY    67  25  20 SW7       29.99F
HAYS           CLEAR     81  25  12 SW9       29.94F
HILL CITY      CLEAR     80  31  16 E6        29.93S
RUSSELL        CLEAR     79  27  14 SW12      29.91F
$$

KSZ061>065-074>080-084>089-280000-
SOUTHWEST KANSAS

CITY           SKY/WX    TMP DP  RH WIND       PRES   REMARKS
DODGE CITY     CLEAR     77  25  14 SW14      30.01F
ELKHART          N/A     69  30  23 SW9         N/A
GARDEN CITY    CLEAR     70  25  18 SW8       30.00F
LIBERAL        PTSUNNY   73  28  19 SW15      30.05S
$$

KSZ066>073-081>083-090>101-280000-
SOUTHEAST KANSAS

CITY           SKY/WX    TMP DP  RH WIND       PRES   REMARKS
CHANUTE        CLEAR     61  35  37 SE9       30.07F
COFFEYVILLE    CLEAR     65  35  33 S8        30.07F
HUTCHINSON     CLEAR     73  36  25 S13       29.97F
MEDICINE LODGE   N/A     80  29  15 SW9       29.98F
NEWTON         CLEAR     66  36  32 S14       30.02F
PARSONS        CLEAR     64  35  34 S7        30.07F
WICHITA INTL   PTCLDY    71  36  27 S13       30.00F
WICHITA JABRA  CLEAR     68  36  30 S13       30.01F
WINFIELD       CLEAR     71  31  22 S8        30.03F
$$

KSZ007>012-019>026-033>040-048>060-102>105-280000-
NORTHEAST KANSAS

CITY           SKY/WX    TMP DP  RH WIND       PRES   REMARKS
CONCORDIA      CLEAR     66  35  31 SE12      29.95F
EMPORIA        CLEAR     61  34  36 SE13      30.03S
LAWRENCE       CLEAR     56  33  42 SE9       30.07S
MANHATTAN      CLEAR     63  35  35 S7        29.99F
OLATHE IND     CLEAR     55  33  43 SE10      30.08S
OLATHE EXE     CLEAR     55  32  41 SE8       30.08R
SALINA         CLEAR     72  37  28 S14       29.95F
TOPEKA BILLARD CLEAR     58  32  37 SE12      30.05S
TOPEKA FORBES  CLEAR     60  32  34 SE12      30.04F
$$



USA.gov is the U.S. government's official web portal to all federal, state and local government web resources and services.